Torna al catalogo

FENGYUN 1C DEB

LostPO
NORAD 31458·DEBRIS·🇨🇳 China

Lanciato May 10, 1999 da Taiyuan Satellite Launch Center

Loading…

Prossimi Passaggi (prossime 24 ore)

TLE

ObsoletoSource: Space-Track

Epoca: Sep 15, 2022, 07:21 UTC

1 31458U 99025BUW 22258.30637639  .00004492  00000-0  99829-3 0  9991
2 31458  99.2092  69.9628 0083305 319.6990  39.8049 14.55457731813467

Traccia FENGYUN 1C DEB in tempo reale con AllMySat

Download on the App Store